Location: Marcé
(47.5801°N, 0.3280°W)
Time: 23:12:45
(UTC+01:00)

Transit 2A - Pass Details

Date: 02 December 2021
Orbit: 591 x 967 km, 66.7° (Epoch: 23 January)

Event Time Altitude Azimuth Distance (km) Brightness Sun altitude
Rises 04:12:42 0° 273° (W) 3,442 - -42.4°
Reaches altitude 10° 04:15:55 10° 291° (WNW) 2,570 - -41.9°
Maximum altitude 04:20:06 19° 335° (NNW) 2,060 - -41.2°
Exits shadow 04:23:57 12° 16° (NNE) 2,566 8.9 -40.5°
Drops below altitude 10° 04:24:28 10° 19° (NNE) 2,690 9.1 -40.5°
Sets 04:27:56 0° 37° (NE) 3,660 10.0 -39.9°
